Location: Bremen
(53.0793°N, 8.8017°E)
Time: 21:16:47
(UTC+01:00)

S-56A Canister/Altair - Pass Details

Date: 07 December 2021
Orbit: 634 x 2499 km, 38.9° (Epoch: 26 January)

Event Time Altitude Azimuth Distance (km) Brightness Sun altitude
Rises 02:39:01 0° 257° (WSW) 4,669 - -49.3°
Reaches altitude 10° 02:43:16 10° 245° (WSW) 3,327 - -48.7°
Maximum altitude 02:49:02 22° 198° (SSW) 2,067 - -48.0°
Drops below altitude 10° 02:53:30 10° 148° (SSE) 2,484 - -47.4°
Sets 02:56:09 0° 132° (SE) 3,233 - -47.1°
